Hourly Weather Kragle

Today, 27 October, Tuesday

Time Temperature Precipitation Wind Pressure Humidity
00:00 +11°C° 0 mm 3 mps 737 mmHg 88%
01:00 +10°C° 0 mm 3 mps 738 mmHg 90%
02:00 +10°C° 0 mm 2 mps 738 mmHg 91%
03:00 +10°C° 0 mm 2 mps 738 mmHg 93%
04:00 +9°C° 0 mm 2 mps 739 mmHg 94%
05:00 +9°C° 0 mm 2 mps 739 mmHg 94%
06:00 +9°C° 0 mm 2 mps 740 mmHg 95%
07:00 +8°C° 0 mm 2 mps 740 mmHg 96%
08:00 +9°C° 0 mm 2 mps 740 mmHg 90%
09:00 +10°C° 0 mm 3 mps 741 mmHg 84%
10:00 +11°C° 0 mm 3 mps 741 mmHg 78%
11:00 +11°C° 0 mm 3 mps 741 mmHg 73%
12:00 +11°C° 0 mm 4 mps 741 mmHg 68%
13:00 +12°C° 0 mm 4 mps 741 mmHg 63%
14:00 +11°C° 0 mm 4 mps 741 mmHg 65%
15:00 +11°C° 0 mm 3 mps 741 mmHg 67%
16:00 +10°C° 0 mm 3 mps 741 mmHg 70%
17:00 +10°C° 0 mm 3 mps 741 mmHg 71%
18:00 +10°C° 0 mm 3 mps 742 mmHg 72%
19:00 +10°C° 0 mm 3 mps 742 mmHg 73%
20:00 +8°C° 0 mm 4 mps 742 mmHg 75%
21:00 +8°C° 0 mm 4 mps 742 mmHg 77%
22:00 +7°C° 0 mm 4 mps 742 mmHg 79%
23:00 +7°C° 0 mm 4 mps 742 mmHg 80%

Tomorrow, 28 October, Wednesday

Time Temperature Precipitation Wind Pressure Humidity
00:00 +7°C° 0 mm 4 mps 742 mmHg 80%
01:00 +7°C° 0 mm 4 mps 742 mmHg 80%
02:00 +6°C° 0 mm 4 mps 742 mmHg 80%
03:00 +6°C° 0 mm 4 mps 742 mmHg 80%
04:00 +6°C° 0 mm 4 mps 742 mmHg 80%
05:00 +6°C° 0 mm 4 mps 742 mmHg 80%
06:00 +6°C° 0 mm 5 mps 742 mmHg 80%
07:00 +6°C° 0 mm 5 mps 742 mmHg 80%
08:00 +7°C° 0 mm 5 mps 742 mmHg 77%
09:00 +7°C° 0 mm 6 mps 742 mmHg 74%
10:00 +8°C° 0 mm 6 mps 742 mmHg 71%
11:00 +8°C° 0 mm 6 mps 742 mmHg 72%
12:00 +8°C° 0 mm 5 mps 742 mmHg 73%
13:00 +8°C° 0 mm 5 mps 742 mmHg 74%
14:00 +8°C° 0.1 mm 5 mps 742 mmHg 76%
15:00 +8°C° 0.1 mm 5 mps 742 mmHg 78%
16:00 +10°C° 0.1 mm 4 mps 742 mmHg 81%
17:00 +8°C° 0.1 mm 4 mps 742 mmHg 82%
18:00 +8°C° 0.1 mm 4 mps 743 mmHg 84%
19:00 +8°C° 0.1 mm 4 mps 743 mmHg 86%
20:00 +9°C° 0 mm 3 mps 743 mmHg 87%
21:00 +9°C° 0 mm 3 mps 743 mmHg 89%
22:00 +8°C° 0 mm 3 mps 743 mmHg 90%
23:00 +8°C° 0 mm 3 mps 743 mmHg 90%

Day after tomorrow, 29 October, Thursday

Time Temperature Precipitation Wind Pressure Humidity
00:00 +8°C° 0 mm 3 mps 743 mmHg 90%
01:00 +7°C° 0 mm 4 mps 743 mmHg 90%
02:00 +7°C° 0 mm 4 mps 743 mmHg 90%
03:00 +7°C° 0 mm 4 mps 743 mmHg 89%
04:00 +7°C° 0 mm 4 mps 743 mmHg 89%
05:00 +7°C° 0 mm 4 mps 743 mmHg 90%
06:00 +7°C° 0 mm 4 mps 742 mmHg 90%
07:00 +6°C° 0 mm 4 mps 742 mmHg 91%
08:00 +7°C° 0.1 mm 4 mps 742 mmHg 88%
09:00 +8°C° 0.1 mm 4 mps 742 mmHg 86%
10:00 +8°C° 0.1 mm 4 mps 742 mmHg 83%
11:00 +8°C° 0.2 mm 4 mps 743 mmHg 81%
12:00 +10°C° 0.2 mm 4 mps 743 mmHg 80%
13:00 +10°C° 0.2 mm 4 mps 743 mmHg 78%
14:00 +10°C° 0.2 mm 4 mps 743 mmHg 78%
15:00 +8°C° 0.2 mm 4 mps 744 mmHg 78%
16:00 +8°C° 0.2 mm 4 mps 744 mmHg 78%
17:00 +8°C° 0 mm 3 mps 744 mmHg 80%
18:00 +8°C° 0 mm 3 mps 745 mmHg 81%
19:00 +7°C° 0 mm 3 mps 745 mmHg 82%
20:00 +6°C° 0.3 mm 4 mps 746 mmHg 83%
21:00 +7°C° 0.3 mm 4 mps 746 mmHg 84%
22:00 +7°C° 0.3 mm 5 mps 746 mmHg 85%
23:00 +7°C° 0.2 mm 5 mps 746 mmHg 85%

30 October, Friday

Time Temperature Precipitation Wind Pressure Humidity
00:00 +7°C° 0.2 mm 5 mps 746 mmHg 86%
01:00 +7°C° 0.2 mm 5 mps 746 mmHg 86%
02:00 +7°C° 0.2 mm 5 mps 747 mmHg 86%
03:00 +7°C° 0.2 mm 6 mps 747 mmHg 86%
04:00 +7°C° 0.2 mm 6 mps 748 mmHg 86%
05:00 +7°C° 0.1 mm 5 mps 748 mmHg 87%
06:00 +6°C° 0.1 mm 5 mps 748 mmHg 87%
07:00 +6°C° 0.1 mm 5 mps 748 mmHg 88%
08:00 +6°C° 0 mm 5 mps 749 mmHg 87%
09:00 +6°C° 0 mm 4 mps 749 mmHg 86%
10:00 +6°C° 0 mm 4 mps 749 mmHg 85%
11:00 +7°C° 0 mm 4 mps 749 mmHg 81%
12:00 +8°C° 0 mm 3 mps 749 mmHg 78%
13:00 +9°C° 0 mm 3 mps 749 mmHg 75%
14:00 +8°C° 0 mm 3 mps 749 mmHg 78%
15:00 +8°C° 0 mm 2 mps 749 mmHg 82%
16:00 +8°C° 0 mm 2 mps 750 mmHg 85%
17:00 +7°C° 0 mm 2 mps 750 mmHg 88%
18:00 +7°C° 0 mm 2 mps 750 mmHg 91%
19:00 +7°C° 0 mm 1 mps 750 mmHg 93%
20:00 +7°C° 0 mm 1 mps 750 mmHg 94%
21:00 +6°C° 0 mm 2 mps 751 mmHg 94%
22:00 +6°C° 0 mm 2 mps 751 mmHg 95%
23:00 +6°C° 0 mm 2 mps 751 mmHg 95%

31 October, Saturday

Time Temperature Precipitation Wind Pressure Humidity
00:00 +6°C° 0 mm 2 mps 751 mmHg 95%
01:00 +6°C° 0 mm 2 mps 751 mmHg 96%
02:00 +6°C° 0 mm 2 mps 751 mmHg 96%
03:00 +7°C° 0 mm 2 mps 751 mmHg 95%
04:00 +7°C° 0 mm 3 mps 751 mmHg 95%
05:00 +7°C° 0.2 mm 3 mps 751 mmHg 95%
06:00 +7°C° 0.2 mm 3 mps 751 mmHg 95%
07:00 +8°C° 0.2 mm 3 mps 751 mmHg 96%
08:00 +8°C° 0.2 mm 3 mps 751 mmHg 95%
09:00 +8°C° 0.2 mm 3 mps 751 mmHg 95%
10:00 +9°C° 0.2 mm 3 mps 752 mmHg 94%
11:00 +9°C° 0.1 mm 3 mps 752 mmHg 94%
12:00 +9°C° 0.1 mm 2 mps 752 mmHg 93%
13:00 +9°C° 0.1 mm 2 mps 752 mmHg 93%
14:00 +9°C° 0.1 mm 2 mps 752 mmHg 93%
15:00 +9°C° 0.1 mm 2 mps 752 mmHg 93%
16:00 +9°C° 0.1 mm 2 mps 752 mmHg 93%
17:00 +9°C° 0 mm 3 mps 752 mmHg 93%
18:00 +9°C° 0 mm 3 mps 752 mmHg 93%
19:00 +9°C° 0 mm 3 mps 752 mmHg 92%
20:00 +9°C° 0 mm 3 mps 752 mmHg 92%
21:00 +8°C° 0 mm 4 mps 752 mmHg 92%
22:00 +7°C° 0 mm 4 mps 752 mmHg 92%
23:00 +7°C° 0 mm 4 mps 752 mmHg 90%

1 November, Sunday

Time Temperature Precipitation Wind Pressure Humidity
00:00 +6°C° 0 mm 4 mps 752 mmHg 89%
01:00 +6°C° 0 mm 5 mps 752 mmHg 88%
02:00 +6°C° 0 mm 5 mps 752 mmHg 87%
03:00 +6°C° 0 mm 5 mps 752 mmHg 86%
04:00 +5°C° 0 mm 5 mps 752 mmHg 84%
05:00 +5°C° 0 mm 5 mps 752 mmHg 84%
06:00 +5°C° 0 mm 5 mps 752 mmHg 83%
07:00 +5°C° 0 mm 5 mps 752 mmHg 83%
08:00 +5°C° 0 mm 5 mps 752 mmHg 77%
09:00 +5°C° 0 mm 6 mps 752 mmHg 72%
10:00 +7°C° 0 mm 6 mps 752 mmHg 67%
11:00 +8°C° 0 mm 6 mps 752 mmHg 63%
12:00 +9°C° 0 mm 6 mps 752 mmHg 60%
13:00 +9°C° 0 mm 6 mps 751 mmHg 56%
14:00 +9°C° 0 mm 6 mps 751 mmHg 59%
15:00 +8°C° 0 mm 5 mps 751 mmHg 61%
16:00 +8°C° 0 mm 5 mps 751 mmHg 64%
17:00 +7°C° 0 mm 5 mps 751 mmHg 66%
18:00 +7°C° 0 mm 5 mps 751 mmHg 69%
19:00 +6°C° 0 mm 5 mps 751 mmHg 71%
20:00 +6°C° 0 mm 5 mps 751 mmHg 72%
21:00 +6°C° 0 mm 5 mps 751 mmHg 72%
22:00 +6°C° 0 mm 5 mps 752 mmHg 73%
23:00 +6°C° 0 mm 5 mps 751 mmHg 74%
Show more